Regional Weather Roundup
Issued by NWS

Home | Current Version | Previous Version | Graphics & Text | Print | Product List | Glossary On
Versions: 1 2 3 4 5 6 7 8 9 10 11 12 13 14 15 16 17 18 19 20 21 22 23 24 25 26 27 28 29 30 31 32 33 34 35 36 37 38 39 40 41 42 43 44 45 46 47 48 49 50
000
ASUS43 KIND 232309
RWRIN

WEATHER ROUNDUP FOR INDIANA
NATIONAL WEATHER SERVICE INDIANAPOLIS IN
700 PM EDT TUE AUG 23 2016

NOTE: "FAIR" INDICATES FEW OR NO CLOUDS BELOW 12,000 FEET WITH NO
SIGNIFICANT WEATHER AND/OR OBSTRUCTIONS TO VISIBILITY.

* - STATION DOES NOT REPORT WEATHER SUCH AS PRECIPITATION OR FOG.

+ - STATION NOT QUALITY CONTROLLED BY THE NATIONAL WEATHER SERVICE.
    USE DATA WITH CAUTION...ESPECIALLY DEWPOINT AND RELATIVE
    HUMIDITY OBSERVATIONS.

INZ001>003-010>013-019-020-240000-
NORTHWEST INDIANA

CITY           SKY/WX    TMP DP  RH WIND       PRES   REMARKS
GARY /AIRPORT/ MOSUNNY   81  61  50 S8        30.16S
KNOX *+        MOSUNNY   77  36  22 S7        30.17F
LA PORTE +     SUNNY     77  62  59 S3        30.18F
MICHIGAN CITY+ SUNNY     75  61  60 MISG      30.17F
MONTICELLO +   PTSUNNY   77  57  49 S5        30.18S
RENSSELAER +   MOSUNNY   77  61  57 S7        30.18S
VALPARAISO     MOSUNNY   78  62  57 S9        30.18S

$$

LMZ046-743>745-240000-
SOUTHERN LAKE MICHIGAN

STATION/POSITION TIME  TEMP    WIND        PRES    WAVE
                       AIR SEA DIR/SP/G            HT
                 (UTC) (F)     (DEG/KT/KT) (MB)    (FT)
BURNS HARBOR     2300   79     180/  9/ 18 1021.7R
MICHIGAN CITY    2200   78     180/ 12/ 15   N/A
5NW MICH CITY    2300   77 73  190/ 10/ 12   N/A     1

$$

INZ004-005-014>016-021>024-240000-
NORTH CENTRAL INDIANA

CITY           SKY/WX    TMP DP  RH WIND       PRES   REMARKS
ELKHART        MOSUNNY   77  59  53 S9        30.19F
GOSHEN         MOSUNNY   77  58  51 S7        30.20S
LOGANSPORT +   MOSUNNY   75  63  64 S5        30.20S
PERU/GRISSOM   CLOUDY    78  62  59 S7        30.19S
ROCHESTER +    CLOUDY    81  63  54 S7        30.19F
SOUTH BEND     SUNNY     77  60  55 S10       30.19S
WARSAW +       MOSUNNY   77  59  53 S7        30.21R

$$

INZ006>009-017-018-025>027-240000-
NORTHEAST INDIANA

CITY           SKY/WX    TMP DP  RH WIND       PRES   REMARKS
ANGOLA *+      SUNNY     79  61  53 SW8       30.21S
AUBURN +       PTSUNNY   79  55  44 SW6       30.22S
FORT WAYNE     PTSUNNY   78  59  51 S8        30.22S
HUNTINGTON +   SUNNY    N/A N/A N/A S3        30.21S

$$

INZ028-029-035-036-043>045-051>053-240000-
WEST CENTRAL INDIANA

CITY           SKY/WX    TMP DP  RH WIND       PRES   REMARKS
CRAWFORDSVL +  MOSUNNY   74  64  70 S5        30.20S
GREENCASTLE +  CLOUDY    75  68  78 S3        30.21S
LAFAYETTE      CLOUDY    76  64  66 S3        30.18S
TERRE HAUTE    CLOUDY    78  63  59 S6        30.19S

$$

INZ030>032-037>040-046>048-054>057-064-065-240000-
CENTRAL INDIANA

CITY           SKY/WX    TMP DP  RH WIND       PRES   REMARKS
COLUMBUS       SUNNY     77  64  65 S6        30.22S
INDIANAPOLIS   CLOUDY    77  60  55 S10       30.20S
-EAGLE CREEK   MOSUNNY   78  59  51 S8        30.20S
KOKOMO *+      MOSUNNY   75  59  57 S7        30.20S
MARION +       SUNNY     76  59  56 S7        30.22S
MT COMFORT *+  PTSUNNY   75  63  64 S5        30.22S
SHELBYVILLE    MOSUNNY   78  61  55 S8        30.21S
ZIONSVILLE +   MOSUNNY   74  63  69 SW6       30.22S

$$

INZ033-034-041-042-049-050-058-059-240000-
EAST CENTRAL INDIANA

CITY           SKY/WX    TMP DP  RH WIND       PRES   REMARKS
MUNCIE         SUNNY     78  59  51 SW7       30.22S

$$

INZ060-061-067>069-081>083-085>088-240000-
SOUTHWEST INDIANA

CITY           SKY/WX    TMP DP  RH WIND       PRES   REMARKS
EVANSVILLE     MOSUNNY   80  66  62 S6        30.19S
HUNTINGBURG *+ CLOUDY    79  64  61 SE5       30.20S
WASHINGTON +   CLOUDY    78  65  64 MISG      30.19S

$$

INZ062-063-066-070>080-084-089>092-240000-
SOUTH CENTRAL AND SOUTHEAST INDIANA

CITY           SKY/WX    TMP DP  RH WIND       PRES   REMARKS
BLOOMINGTON    MOSUNNY   78  63  59 S5        30.21S
MADISON *+     PTSUNNY   79  64  61 CALM      30.24S

$$




USA.gov is the U.S. government's official web portal to all federal, state and local government web resources and services.